Home   Weather   Ontario   Past weeks

Flag for USA Past Weather in Ontario, California, USA — Yesterday and Last 2 Weeks

Now
93 °F

Scattered clouds.


Feels Like: 88 °F
Forecast: 71 / 94 °F
Wind: 10 mph from West

Location: Ontario International Airport

Current Time: Sep 26, 2016 at 7:09:56 PM

Latest Report: Sep 26, 2016 at 5:53 PM


Visibility: 10 mi

Pressure: 29.84 "Hg

Humidity: 11%

Dew Point: 32 °F

Location of OntarioLocation

Past Weather in Ontario — Graph

°F

Ontario Temperature Yesterday

Maximum temperature yesterday: 97 °F (at 1:53 PM)
Minimum temperature yesterday: 63 °F (at 4:53 AM)
Average temperature yesterday: 84 °F

High & Low Weather Summary for the Past Weeks

 TemperatureHumidityPressure
High104 °F (Sep 18, 2:53 PM)87% (Sep 12, 1:53 AM)30.06 "Hg (Sep 12, 1:53 AM)
Low54 °F (Sep 14, 5:53 AM)4% (Sep 18, 12:53 PM)29.78 "Hg (Sep 21, 3:53 PM)
Average74 °F47%29.91 "Hg
* Reported Sep 11 5:53 PM — Sep 26 5:53 PM, Ontario, Weather by CustomWeather, © 2016

Note: Actual official high and low records may vary slightly from our data, if they occured in-between our weather recording intervals... More about our weather records

Advertising

Ontario Weather History for the Previous 24 Hours

Scroll right to see more
 ConditionsComfort  
Time TempWeatherWind HumidityBarometerVisibility
5:53 PM
Mon, Sep 26
93 °FScattered clouds.10 mph11%29.84 "Hg10 mi
4:53 PM95 °FBroken clouds.12 mph11%29.82 "Hg10 mi
3:53 PM101 °FBroken clouds.12 mph7%29.80 "Hg10 mi
2:53 PM100 °FBroken clouds.8 mph7%29.82 "Hg10 mi
1:53 PM102 °FScattered clouds.13 mph7%29.83 "Hg10 mi
12:53 PM103 °FPassing clouds.9 mph7%29.86 "Hg10 mi
11:53 AM99 °FPassing clouds.10 mph8%29.88 "Hg10 mi
10:53 AM94 °FPassing clouds.5 mph10%29.91 "Hg10 mi
9:53 AM88 °FScattered clouds.5 mph12%29.94 "Hg10 mi
8:53 AM83 °FScattered clouds.3 mph15%29.94 "Hg10 mi
7:53 AM77 °FPassing clouds.No wind18%29.94 "Hg10 mi
6:53 AM68 °FPassing clouds.3 mph24%29.94 "Hg10 mi
5:53 AM67 °FPassing clouds.5 mph23%29.92 "Hg10 mi
4:53 AM75 °FClear.5 mph17%29.90 "Hg10 mi
3:53 AM75 °FClear.7 mph17%29.90 "Hg10 mi
2:53 AM75 °FClear.3 mph16%29.90 "Hg10 mi
1:53 AM78 °FClear.No wind13%29.91 "Hg10 mi
12:53 AM83 °FClear.5 mph11%29.91 "Hg10 mi
11:53 PM
Sun, Sep 25
84 °FClear.6 mph10%29.91 "Hg10 mi
10:53 PM84 °FClear.7 mph10%29.91 "Hg10 mi
9:53 PM84 °FClear.No wind9%29.91 "Hg10 mi
8:53 PM88 °FClear.6 mph7%29.90 "Hg10 mi
7:53 PM90 °FClear.15 mph6%29.87 "Hg10 mi
Weather by CustomWeather, © 2016

See weather overviewHow to use our weather pages